This is the latest recevied weather packets stored in our database for station/object K4ZZR. If no packets are shown the sender has not sent any weather packets the latest 10 day(s).
| Time | Temp. | Humidity | Pressure | Rain* | Wind** | Luminosity | Snow |
|---|---|---|---|---|---|---|---|
| 1777930124 | 24.44° C | 78% | 1014.1 hPa | 0 mm | - | 108 W/m² | - |
| 1777929820 | 24.44° C | 78% | 1014.2 hPa | 0 mm | - | 119 W/m² | - |
| 1777929518 | 24.44° C | 78% | 1014.2 hPa | 0 mm | - | 213 W/m² | - |
| 1777929214 | 24.44° C | 79% | 1014.1 hPa | 0 mm | - | 207 W/m² | - |
| 1777928912 | 24.44° C | 78% | 1014.1 hPa | 0 mm | - | 119 W/m² | - |
| 1777928609 | 25° C | 77% | 1014.1 hPa | 0 mm | - | 265 W/m² | - |
| 1777928306 | 24.44° C | 79% | 1014.2 hPa | 0 mm | - | 242 W/m² | - |
| 1777927400 | 25° C | 78% | 1014.4 hPa | 0 mm | - | 334 W/m² | - |
| 1777927099 | 24.44° C | 79% | 1014.3 hPa | 0 mm | - | 301 W/m² | - |
| 1777926795 | 24.44° C | 79% | 1014.2 hPa | 0 mm | - | 240 W/m² | - |
| 1777925885 | 24.44° C | 78% | 1014.4 hPa | 0 mm | - | 169 W/m² | - |
| 1777925280 | 25° C | 78% | 1014.4 hPa | 0 mm | - | 198 W/m² | - |
| 1777924672 | 25.56° C | 75% | 1014.5 hPa | 0 mm | - | 783 W/m² | - |
| 1777924368 | 25.56° C | 78% | 1014.5 hPa | 0 mm | - | 790 W/m² | - |
| 1777923458 | 25° C | 77% | 1014.8 hPa | 0 mm | - | 322 W/m² | - |
| 1777923155 | 25° C | 77% | 1014.5 hPa | 0 mm | - | 949 W/m² | - |
| 1777922853 | 25° C | 79% | 1014.9 hPa | 0 mm | - | 466 W/m² | - |
| 1777922551 | 24.44° C | 80% | 1014.8 hPa | 0 mm | - | 258 W/m² | - |
| 1777922250 | 25° C | 80% | 1014.8 hPa | 0 mm | - | 276 W/m² | - |
| 1777921946 | 24.44° C | 79% | 1015.1 hPa | 0 mm | - | 388 W/m² | - |
| 1777921035 | 24.44° C | 80% | 1015.1 hPa | 0 mm | - | 569 W/m² | - |
| 1777920732 | 25° C | 80% | 1015 hPa | 0 mm | - | 538 W/m² | - |
| 1777920428 | 24.44° C | 81% | 1015.1 hPa | 0 mm | - | 605 W/m² | - |
| 1777919820 | 25° C | 80% | 1015.5 hPa | 0 mm | - | 604 W/m² | - |
| 1777919517 | 25° C | 81% | 1015.3 hPa | 0 mm | - | 915 W/m² | - |
* Rain latest hour (hover to see other rain measurements)
** Current wind speed in m/s (hover to see current wind gust speed)